Johnstown, PA

1:47 PM EDT on April 26, 2017 (GMT -0400)
Johnstown-Cambria County

Weather History for KJST - April, 2013

Change the Weather History Date:

Thursday, April 11, 2013

  Actual Average Record
Temperature  
Mean Temperature 61 °F 46 °F  
Max Temperature 72 °F 55 °F 87 °F (1930)
Min Temperature 51 °F 36 °F 17 °F (1909)
Degree Days  
Heating Degree Days 4 20  
Month to date heating degree days 236  
Since 1 July heating degree days 6028  
Cooling Degree Days 0 0  
Month to date cooling degree days 0  
Year to date cooling degree days 0  
Growing Degree Days 11 (Base 50)    
Moisture  
Dew Point 52 °F    
Average Humidity 77    
Maximum Humidity 93    
Minimum Humidity 51    
Precipitation  
Precipitation 0.00 in 0.12 in 1.03 in (1905)
Month to date precipitation 1.45  
Year to date precipitation 9.97  
Sea Level Pressure  
Sea Level Pressure 29.81 in    
Wind  
Wind Speed 7 mph (SSW)    
Max Wind Speed 14 mph    
Max Gust Speed 24 mph    
Visibility 9 miles    
Events      
T = Trace of Precipitation, MM = Missing Value Source: NWS Daily Summary

Daily Weather History Graph

Daily Weather History Graph

Search for Another Location

Airport or City:

Trip Planner

Search our weather history database for the weather conditions in past years. The results will help you decide how hot, cold, wet, or windy it might be!

Date:

Astronomy

Apr. 11, 2013 Rise Set
Actual Time 6:42 AM EDT 7:50 PM EDT
Civil Twilight 6:14 AM EDT 8:18 PM EDT
Nautical Twilight 5:41 AM EDT 8:51 PM EDT
Astronomical Twilight 5:06 AM EDT 9:26 PM EDT
Moon 7:13 AM EDT (4/11) 9:23 PM EDT (4/11)
Length of Visible Light 14h 03m
Length of Day
13h 07m
New Moon, 2% of the Moon is Illuminated
Apr 11
New Moon
Apr 18
First Quarter
Apr 25
Full
May 2
Last Quarter
May 9
New

Hourly Weather History & Observations

Time (EDT) Temp. Dew Point Humidity Pressure Visibility Wind Dir Wind Speed Gust Speed Precip Events Conditions
12:54 AM 55.0 °F 53.1 °F 93% 29.86 in 10.0 mi SSW 6.9 mph - N/A   Clear
1:54 AM 55.0 °F 53.1 °F 93% 29.87 in 10.0 mi SW 6.9 mph - N/A   Clear
2:54 AM 55.0 °F 52.0 °F 89% 29.86 in 10.0 mi WSW 5.8 mph - N/A   Clear
3:54 AM 55.0 °F 52.0 °F 89% 29.88 in 10.0 mi West 5.8 mph - N/A   Clear
4:54 AM 55.9 °F 52.0 °F 87% 29.87 in 10.0 mi South 4.6 mph - N/A   Clear
5:54 AM 54.0 °F 51.1 °F 90% 29.86 in 10.0 mi South 6.9 mph - N/A   Clear
6:54 AM 55.0 °F 52.0 °F 89% 29.84 in 10.0 mi SSW 6.9 mph - N/A   Clear
7:54 AM 55.9 °F 52.0 °F 87% 29.86 in 10.0 mi SSW 3.5 mph - N/A   Mostly Cloudy
8:54 AM 55.9 °F 53.1 °F 90% 29.87 in 10.0 mi WSW 6.9 mph - N/A   Scattered Clouds
9:54 AM 61.0 °F 54.0 °F 78% 29.87 in 10.0 mi WSW 5.8 mph - N/A   Scattered Clouds
10:54 AM 66.0 °F 54.0 °F 65% 29.86 in 10.0 mi SW 9.2 mph - N/A   Partly Cloudy
11:54 AM 69.1 °F 54.0 °F 58% 29.86 in 10.0 mi WSW 11.5 mph - N/A   Mostly Cloudy
1:54 PM 70.0 °F 52.0 °F 53% 29.82 in 10.0 mi West 13.8 mph 18.4 mph N/A   Mostly Cloudy
2:54 PM 71.1 °F 52.0 °F 51% 29.81 in 10.0 mi SSW 6.9 mph - N/A   Mostly Cloudy
3:54 PM 71.1 °F 52.0 °F 51% 29.78 in 10.0 mi NNW 3.5 mph - N/A   Mostly Cloudy
4:54 PM 71.1 °F 52.0 °F 51% 29.75 in 10.0 mi Variable 3.5 mph - N/A   Clear
5:54 PM 71.1 °F 52.0 °F 51% 29.74 in 10.0 mi Calm Calm - N/A   Clear
6:54 PM 63.0 °F 52.0 °F 67% 29.76 in 10.0 mi East 5.8 mph - N/A   Clear
7:54 PM 59.0 °F 51.1 °F 75% 29.74 in 10.0 mi ENE 9.2 mph - N/A   Mostly Cloudy
8:54 PM 53.1 °F 48.0 °F 83% 29.75 in 10.0 mi ENE 8.1 mph - N/A   Partly Cloudy
9:38 PM 51.8 °F 48.2 °F 88% 29.74 in 6.0 mi East 9.2 mph - N/A   Mostly Cloudy
9:54 PM 53.1 °F 50.0 °F 89% 29.73 in 5.0 mi East 11.5 mph 16.1 mph N/A   Overcast
10:54 PM 52.0 °F 48.9 °F 89% 29.72 in 4.0 mi East 12.7 mph 19.6 mph N/A   Overcast
11:54 PM 52.0 °F 50.0 °F 93% 29.68 in 4.0 mi East 12.7 mph 24.2 mph N/A   Mostly Cloudy